WB4ZUT Weather Reports


Display with metric or nautical units.
time (UTC)temp
F
wind
direction
speed
MPH
gust
MPH
rain 1hr
in
rain 24hr
in
rain mn
in
humidity
%
barometer
mb
20260504081616 60 19 3.0 3.0 0.00 0.00 0.00 65 1012.5
20260504081112 60 78 0.0 0.0 0.00 0.00 0.00 64 1010.2
20260504080609 60 118 2.0 2.0 0.00 0.00 0.00 63 1010.1
20260504080105 60 69 0.0 1.0 0.00 0.00 0.00 64 1010.3
20260504050421 61 109 2.0 2.0 0.00 0.00 0.00 59 1011.0
20260504045918 60 81 1.0 2.0 0.00 0.00 0.00 58 1011.0
20260504045414 61 188 6.0 8.0 0.00 0.00 0.00 59 1011.1
20260504044911 61 236 1.0 3.0 0.00 0.00 0.00 59 1011.2
20260504044408 61 84 4.0 5.0 0.00 0.00 0.00 58 1011.2
20260504043906 61 201 6.0 8.0 0.00 0.00 0.00 58 1011.4
20260504043402 61 19 1.0 2.0 0.00 0.00 0.00 58 1011.5
20260504042900 61 67 3.0 6.0 0.00 0.00 0.00 57 1011.4
20260504042356 61 54 1.0 1.0 0.00 0.00 0.00 59 1011.5
20260504041852 61 87 2.0 2.0 0.00 0.00 0.00 58 1011.5
20260504041348 61 90 1.0 2.0 0.00 0.00 0.00 58 1011.5
20260504040845 61 78 1.0 1.0 0.00 0.00 0.00 58 1011.8
20260504040342 61 86 1.0 1.0 0.00 0.00 0.00 58 1012.0
20260504035838 61 72 3.0 5.0 0.00 0.00 0.00 58 1011.9
20260504035337 60 90 3.0 3.0 0.00 0.00 0.00 59 1012.0
20260504034832 60 88 1.0 1.0 0.00 0.00 0.00 60 1012.2
20260504034330 60 92 1.0 1.0 0.00 0.00 0.00 59 1011.9
20260504033827 60 81 1.0 1.0 0.00 0.00 0.00 59 1011.9
20260504033325 61 99 2.0 2.0 0.00 0.00 0.00 59 1012.1
20260504032821 60 139 3.0 5.0 0.00 0.00 0.00 59 1012.0
20260504032319 60 75 0.0 1.0 0.00 0.00 0.00 59 1012.0
20260504031815 60 63 0.0 1.0 0.00 0.00 0.00 60 1012.1
20260504031313 60 156 1.0 2.0 0.00 0.00 0.00 60 1012.1
20260504030809 60 89 1.0 1.0 0.00 0.00 0.00 60 1012.4
20260504030307 61 102 1.0 2.0 0.00 0.00 0.00 60 1012.5
20260504025802 61 110 2.0 2.0 0.00 0.00 0.00 60 1012.5
20260504025300 61 85 0.0 1.0 0.00 0.00 0.00 59 1012.7
20260504024756 61 159 3.0 3.0 0.00 0.00 0.00 59 1012.8
20260504024253 61 132 2.0 3.0 0.00 0.00 0.00 59 1012.8
20260504023749 61 98 1.0 2.0 0.00 0.00 0.00 59 1012.8
20260504023246 61 148 2.0 3.0 0.00 0.00 0.00 58 1012.6
20260504022742 61 114 2.0 2.0 0.00 0.00 0.00 58 1012.5
20260504022238 61 88 1.0 1.0 0.00 0.00 0.00 58 1012.7
20260504021735 61 123 2.0 2.0 0.00 0.00 0.00 57 1012.7
20260504021233 62 83 1.0 2.0 0.00 0.00 0.00 56 1012.6
20260504020729 62 84 2.0 2.0 0.00 0.00 0.00 55 1012.7
20260504020226 62 102 1.0 1.0 0.00 0.00 0.00 56 1012.7
20260504015722 62 84 0.0 1.0 0.00 0.00 0.00 55 1012.5
20260504015219 62 91 1.0 1.0 0.00 0.00 0.00 55 1012.7
20260504014714 62 90 0.0 1.0 0.00 0.00 0.00 55 1012.6
20260504014211 62 82 0.0 1.0 0.00 0.00 0.00 55 1012.5
20260504013709 62 87 0.0 1.0 0.00 0.00 0.00 55 1012.7
20260504013206 63 111 1.0 2.0 0.00 0.00 0.00 54 1012.8
20260504012703 63 96 1.0 1.0 0.00 0.00 0.00 53 1012.8
20260504012201 63 93 1.0 1.0 0.00 0.00 0.00 53 1012.8
20260504011658 63 150 3.0 3.0 0.00 0.00 0.00 52 1013.0
20260504011154 64 90 0.0 0.0 0.00 0.00 0.00 52 1012.9
20260504010650 64 89 0.0 1.0 0.00 0.00 0.00 52 1012.8
20260504010145 64 128 1.0 2.0 0.00 0.00 0.00 50 1012.8
20260504005643 64 152 2.0 2.0 0.00 0.00 0.00 50 1012.8
20260504005139 64 243 2.0 2.0 0.00 0.00 0.00 51 1012.7
20260504004638 64 70 0.0 0.0 0.00 0.00 0.00 51 1012.9
20260504004134 64 120 1.0 2.0 0.00 0.00 0.00 50 1012.7
20260504003631 64 83 1.0 1.0 0.00 0.00 0.00 50 1012.7
20260504003127 65 79 0.0 0.0 0.00 0.00 0.00 50 1012.7
20260504002624 65 90 1.0 1.0 0.00 0.00 0.00 50 1012.7
20260504002122 65 340 2.0 3.0 0.00 0.00 0.00 49 1012.6
20260504001620 66 123 1.0 2.0 0.00 0.00 0.00 48 1012.6
20260504001115 66 84 7.0 11.0 0.00 0.00 0.00 47 1012.2
20260504000613 66 133 2.0 2.0 0.00 0.00 0.00 47 1012.3
20260504000110 66 199 4.0 5.0 0.00 0.00 0.00 46 1012.1
20260503235608 66 180 3.0 5.0 0.00 0.00 0.00 46 1012.1
20260503235105 66 197 4.0 7.0 0.00 0.00 0.00 46 1012.0
20260503234603 66 223 3.0 3.0 0.00 0.00 0.00 46 1012.1
20260503234100 67 241 5.0 7.0 0.00 0.00 0.00 46 1012.2
20260503233557 67 122 2.0 3.0 0.00 0.00 0.00 46 1012.2
20260503233053 67 24 2.0 3.0 0.00 0.00 0.00 45 1012.3
20260503232550 67 104 3.0 3.0 0.00 0.00 0.00 45 1012.3
20260503232047 68 166 3.0 5.0 0.00 0.00 0.00 45 1012.3
20260503231545 68 167 5.0 8.0 0.00 0.00 0.00 44 1012.3
20260503231041 68 207 1.0 2.0 0.00 0.00 0.00 44 1012.3
20260503230538 68 76 1.0 1.0 0.00 0.00 0.00 45 1012.5
20260503230036 68 136 4.0 7.0 0.00 0.00 0.00 44 1012.6
20260503225532 68 82 4.0 6.0 0.00 0.00 0.00 44 1012.6
20260503225027 68 151 3.0 3.0 0.00 0.00 0.00 45 1012.7
20260503224525 68 191 6.0 7.0 0.00 0.00 0.00 44 1012.5
20260503224023 68 213 5.0 7.0 0.00 0.00 0.00 44 1012.5
20260503223521 68 49 3.0 5.0 0.00 0.00 0.00 45 1012.8
20260503223016 68 316 3.0 3.0 0.00 0.00 0.00 45 1012.7
20260503222514 68 230 6.0 10.0 0.00 0.00 0.00 44 1013.0
20260503222012 68 215 6.0 9.0 0.00 0.00 0.00 44 1013.1
20260503221510 69 232 7.0 11.0 0.00 0.00 0.00 44 1013.1
20260503221007 68 175 3.0 5.0 0.00 0.00 0.00 45 1013.2
20260503220503 68 130 6.0 9.0 0.00 0.00 0.00 44 1013.3
20260503220000 68 154 3.0 6.0 0.00 0.00 0.00 45 1013.3
20260503215457 68 111 0.0 1.0 0.00 0.00 0.00 46 1013.5
20260503214954 68 256 3.0 3.0 0.00 0.00 0.00 44 1013.6
20260503214452 68 176 2.0 3.0 0.00 0.00 0.00 45 1013.7
20260503213949 68 205 9.0 11.0 0.00 0.00 0.00 43 1013.6
20260503213448 68 270 3.0 3.0 0.00 0.00 0.00 44 1013.8
20260503212944 68 58 1.0 1.0 0.00 0.00 0.00 47 1014.1
20260503212441 68 54 3.0 5.0 0.00 0.00 0.00 45 1014.1
20260503211938 68 76 3.0 5.0 0.00 0.00 0.00 45 1014.3
20260503211435 68 134 3.0 5.0 0.00 0.00 0.00 45 1014.5
20260503210930 68 114 3.0 3.0 0.00 0.00 0.00 48 1014.4
20260503210428 68 44 3.0 3.0 0.00 0.00 0.00 46 1014.1
20260503205922 67 243 5.0 7.0 0.00 0.00 0.00 44 1014.8
20260503205420 68 260 7.0 11.0 0.00 0.00 0.00 45 1014.7
20260503204916 67 259 4.0 8.0 0.00 0.00 0.00 46 1014.9
20260503204413 67 233 9.0 13.0 0.00 0.00 0.00 45 1014.9
20260503203910 67 244 9.0 13.0 0.00 0.00 0.00 43 1015.2
20260503203408 67 278 10.0 13.0 0.00 0.00 0.00 44 1015.2
20260503202904 68 206 9.0 13.0 0.00 0.00 0.00 44 1015.2
20260503202403 67 86 4.0 9.0 0.00 0.00 0.00 47 1015.4
20260503201901 67 67 3.0 6.0 0.00 0.00 0.00 45 1015.3
20260503201357 67 72 3.0 5.0 0.00 0.00 0.00 47 1015.7
20260503200855 67 339 4.0 6.0 0.00 0.00 0.00 47 1016.0
20260503200350 68 218 7.0 10.0 0.00 0.00 0.00 46 1016.1
20260503195848 66 154 5.0 7.0 0.00 0.00 0.00 46 1016.1
20260503195344 66 334 5.0 8.0 0.00 0.00 0.00 47 1016.3
20260503194842 66 240 5.0 7.0 0.00 0.00 0.00 47 1016.4
20260503194338 66 127 8.0 10.0 0.00 0.00 0.00 47 1016.5
20260503193834 66 246 6.0 8.0 0.00 0.00 0.00 47 1016.7
20260503193330 66 166 5.0 7.0 0.00 0.00 0.00 48 1016.6
20260503192826 66 248 6.0 9.0 0.00 0.00 0.00 47 1016.6
20260503192322 67 192 5.0 6.0 0.00 0.00 0.00 48 1016.8
20260503191818 66 76 2.0 2.0 0.00 0.00 0.00 50 1016.8
20260503191315 66 227 4.0 5.0 0.00 0.00 0.00 49 1017.1
20260503190812 66 132 6.0 7.0 0.00 0.00 0.00 50 1017.0
20260503190309 65 235 4.0 7.0 0.00 0.00 0.00 49 1017.2
20260503185806 65 239 5.0 8.0 0.00 0.00 0.00 49 1017.4
20260503185304 65 92 4.0 6.0 0.00 0.00 0.00 50 1017.2
20260503184802 65 207 7.0 9.0 0.00 0.00 0.00 51 1017.6
20260503184258 65 29 3.0 5.0 0.00 0.00 0.00 53 1017.7
20260503183754 65 225 4.0 5.0 0.00 0.00 0.00 49 1018.1
20260503183252 65 93 3.0 5.0 0.00 0.00 0.00 51 1018.0
20260503182749 64 279 5.0 9.0 0.00 0.00 0.00 51 1018.1
20260503182248 64 349 3.0 3.0 0.00 0.00 0.00 52 1018.3
20260503181744 65 244 5.0 9.0 0.00 0.00 0.00 52 1018.6
20260503181242 64 317 5.0 6.0 0.00 0.00 0.00 51 1018.4
20260503180738 64 254 9.0 11.0 0.00 0.00 0.00 51 1018.2
20260503180236 63 66 1.0 1.0 0.00 0.00 0.00 52 1018.6
20260503175732 64 93 1.0 1.0 0.00 0.00 0.00 51 1018.7
20260503175231 64 101 2.0 2.0 0.00 0.00 0.00 54 1018.7
20260503174726 64 290 2.0 3.0 0.00 0.00 0.00 51 1018.9
20260503174224 64 93 3.0 5.0 0.00 0.00 0.00 51 1019.0
20260503173719 63 222 8.0 11.0 0.00 0.00 0.00 51 1019.1
20260503173216 64 266 8.0 10.0 0.00 0.00 0.00 52 1019.1
20260503172713 62 233 3.0 7.0 0.00 0.00 0.00 53 1019.3
20260503172210 63 358 3.0 6.0 0.00 0.00 0.00 53 1019.5
20260503171706 63 164 1.0 2.0 0.00 0.00 0.00 56 1019.6
20260503171203 63 238 4.0 6.0 0.00 0.00 0.00 53 1019.5
20260503170700 62 276 3.0 9.0 0.00 0.00 0.00 52 1019.6
20260503170157 62 228 4.0 8.0 0.00 0.00 0.00 52 1019.8
20260503160118 60 43 3.0 6.0 0.00 0.00 0.00 53 1020.2
20260503150548 59 19 2.0 2.0 0.00 0.00 0.00 58 1020.7
20260503130938 48 76 1.0 1.0 0.00 0.00 0.00 98 1020.9
20260503130436 47 205 5.0 6.0 0.00 0.00 0.00 98 1020.8
20260503110326 37 63 0.0 0.0 0.00 0.00 0.00 99 1020.2
20260503100252 37 63 0.0 0.0 0.00 0.00 0.00 99 1020.0
20260503090212 36 63 0.0 0.0 0.00 0.00 0.00 99 1020.2